Time,TemperatureF,DewpointF,PressureIn,WindDirection,WindDirectionDegrees,WindSpeedMPH,WindSpeedGustMPH,Humidity,HourlyPrecipIn,Conditions,Clouds,dailyrainin,SoftwareType,DateUTC
2013-11-18 00:01:00,50.2,50.0,29.75,WNW,292,3.0,10.0,100,0.06,,,0.00,Rainwise IP-100,2013-11-18 05:01:00,
2013-11-18 00:02:00,50.3,50.0,29.75,SSW,202,7.0,10.0,100,0.06,,,0.00,Rainwise IP-100,2013-11-18 05:02:00,
2013-11-18 00:07:00,50.3,50.0,29.75,SSE,157,3.0,8.0,100,0.00,,,0.00,Rainwise IP-100,2013-11-18 05:07:00,
2013-11-18 00:12:00,50.4,50.0,29.74,West,270,2.0,7.0,100,0.00,,,0.00,Rainwise IP-100,2013-11-18 05:12:00,
2013-11-18 00:17:00,50.5,50.0,29.74,WSW,247,2.0,7.0,100,0.00,,,0.00,Rainwise IP-100,2013-11-18 05:17:00,
2013-11-18 00:22:00,50.6,50.0,29.73,South,180,1.0,9.0,100,0.06,,,0.01,Rainwise IP-100,2013-11-18 05:22:00,
2013-11-18 00:27:00,50.8,50.0,29.73,SSW,202,5.0,12.0,100,0.06,,,0.01,Rainwise IP-100,2013-11-18 05:27:00,
2013-11-18 00:32:00,50.8,50.0,29.73,South,180,0.0,9.0,100,0.00,,,0.01,Rainwise IP-100,2013-11-18 05:32:00,
2013-11-18 00:37:00,50.9,51.0,29.72,SW,225,3.0,8.0,100,0.00,,,0.01,Rainwise IP-100,2013-11-18 05:37:00,
2013-11-18 00:42:00,50.9,51.0,29.72,South,180,2.0,9.0,100,0.00,,,0.01,Rainwise IP-100,2013-11-18 05:42:00,
2013-11-18 00:47:00,51.0,51.0,29.72,SSE,157,0.0,12.0,100,0.00,,,0.01,Rainwise IP-100,2013-11-18 05:47:00,
2013-11-18 00:52:00,51.0,51.0,29.71,North,360,0.0,7.0,100,0.06,,,0.02,Rainwise IP-100,2013-11-18 05:52:00,
2013-11-18 00:57:00,51.1,51.0,29.70,South,180,1.0,9.0,100,0.06,,,0.02,Rainwise IP-100,2013-11-18 05:57:00,
2013-11-18 01:02:00,51.1,51.0,29.70,ENE,67,6.0,7.0,100,0.00,,,0.02,Rainwise IP-100,2013-11-18 06:02:00,
2013-11-18 01:07:00,51.3,51.0,29.69,SSE,157,6.0,10.0,100,0.00,,,0.02,Rainwise IP-100,2013-11-18 06:07:00,
2013-11-18 01:12:00,51.4,51.0,29.69,NNW,337,1.0,10.0,100,0.00,,,0.02,Rainwise IP-100,2013-11-18 06:12:00,
2013-11-18 01:17:00,51.5,52.0,29.68,SSE,157,2.0,9.0,100,0.00,,,0.02,Rainwise IP-100,2013-11-18 06:17:00,
2013-11-18 01:22:00,51.6,52.0,29.68,SSW,202,6.0,8.0,100,0.00,,,0.02,Rainwise IP-100,2013-11-18 06:22:00,
2013-11-18 01:27:00,51.7,52.0,29.68,NE,45,4.0,8.0,100,0.00,,,0.02,Rainwise IP-100,2013-11-18 06:27:00,
2013-11-18 01:32:00,51.7,52.0,29.68,ESE,112,7.0,7.0,100,0.00,,,0.02,Rainwise IP-100,2013-11-18 06:32:00,
2013-11-18 01:37:00,51.7,52.0,29.68,ESE,112,0.0,8.0,100,0.06,,,0.03,Rainwise IP-100,2013-11-18 06:37:00,
2013-11-18 01:42:00,51.7,52.0,29.67,SSW,202,7.0,7.0,100,0.06,,,0.03,Rainwise IP-100,2013-11-18 06:42:00,
2013-11-18 01:47:00,52.0,52.0,29.67,WNW,292,0.0,10.0,100,0.00,,,0.03,Rainwise IP-100,2013-11-18 06:47:00,
2013-11-18 01:52:00,52.1,52.0,29.66,SSW,202,6.0,12.0,100,0.00,,,0.03,Rainwise IP-100,2013-11-18 06:52:00,
2013-11-18 01:57:00,52.3,52.0,29.66,SW,225,3.0,12.0,100,0.00,,,0.03,Rainwise IP-100,2013-11-18 06:57:00,
2013-11-18 02:02:00,52.6,53.0,29.66,WSW,247,0.0,12.0,100,0.06,,,0.04,Rainwise IP-100,2013-11-18 07:02:00,
2013-11-18 02:07:00,52.7,53.0,29.65,SW,225,5.0,7.0,100,0.06,,,0.04,Rainwise IP-100,2013-11-18 07:07:00,
2013-11-18 02:12:00,52.9,53.0,29.65,SE,135,3.0,9.0,100,0.00,,,0.04,Rainwise IP-100,2013-11-18 07:12:00,
2013-11-18 02:17:00,53.1,53.0,29.64,South,180,9.0,9.0,100,0.00,,,0.04,Rainwise IP-100,2013-11-18 07:17:00,
2013-11-18 02:22:00,53.5,53.0,29.64,SSW,202,6.0,13.0,100,0.00,,,0.04,Rainwise IP-100,2013-11-18 07:22:00,
2013-11-18 02:27:00,53.7,53.0,29.63,West,270,3.0,12.0,100,0.00,,,0.04,Rainwise IP-100,2013-11-18 07:27:00,
2013-11-18 02:32:00,53.6,53.0,29.63,SSW,202,5.0,7.0,100,0.00,,,0.04,Rainwise IP-100,2013-11-18 07:32:00,
2013-11-18 02:37:00,53.7,53.0,29.63,South,180,6.0,12.0,100,0.06,,,0.05,Rainwise IP-100,2013-11-18 07:37:00,
2013-11-18 02:42:00,53.7,53.0,29.62,SW,225,6.0,7.0,100,0.06,,,0.05,Rainwise IP-100,2013-11-18 07:42:00,
2013-11-18 02:47:00,53.9,54.0,29.62,NNW,337,2.0,14.0,100,0.00,,,0.05,Rainwise IP-100,2013-11-18 07:47:00,
2013-11-18 02:52:00,53.9,54.0,29.61,South,180,5.0,11.0,100,0.00,,,0.05,Rainwise IP-100,2013-11-18 07:52:00,
2013-11-18 02:57:00,53.9,54.0,29.61,NW,315,2.0,11.0,100,0.00,,,0.05,Rainwise IP-100,2013-11-18 07:57:00,
2013-11-18 03:02:00,53.9,54.0,29.61,South,180,3.0,12.0,100,0.00,,,0.05,Rainwise IP-100,2013-11-18 08:02:00,
2013-11-18 03:07:00,53.9,54.0,29.60,ESE,112,3.0,12.0,100,0.06,,,0.06,Rainwise IP-100,2013-11-18 08:07:00,
2013-11-18 03:12:00,53.9,54.0,29.60,NW,315,2.0,9.0,100,0.06,,,0.06,Rainwise IP-100,2013-11-18 08:12:00,
2013-11-18 03:17:00,53.9,54.0,29.59,South,180,7.0,10.0,100,0.00,,,0.06,Rainwise IP-100,2013-11-18 08:17:00,
2013-11-18 03:22:00,53.9,54.0,29.58,WSW,247,7.0,10.0,100,0.00,,,0.06,Rainwise IP-100,2013-11-18 08:22:00,
2013-11-18 03:27:00,53.9,54.0,29.58,SSW,202,1.0,10.0,100,0.00,,,0.06,Rainwise IP-100,2013-11-18 08:27:00,
2013-11-18 03:32:00,53.9,54.0,29.57,SW,225,1.0,10.0,100,0.00,,,0.06,Rainwise IP-100,2013-11-18 08:32:00,
2013-11-18 03:37:00,53.9,54.0,29.56,WSW,247,1.0,10.0,100,0.06,,,0.07,Rainwise IP-100,2013-11-18 08:37:00,
2013-11-18 03:42:00,53.9,54.0,29.56,SSW,202,7.0,13.0,100,0.06,,,0.07,Rainwise IP-100,2013-11-18 08:42:00,
2013-11-18 03:47:00,53.9,54.0,29.56,SE,135,5.0,12.0,100,0.00,,,0.07,Rainwise IP-100,2013-11-18 08:47:00,
2013-11-18 03:52:00,54.1,54.0,29.56,NE,45,1.0,9.0,100,0.00,,,0.07,Rainwise IP-100,2013-11-18 08:52:00,
2013-11-18 03:57:00,54.1,54.0,29.56,WNW,292,1.0,8.0,100,0.00,,,0.07,Rainwise IP-100,2013-11-18 08:57:00,
2013-11-18 04:02:00,54.2,54.0,29.55,West,270,1.0,13.0,100,0.00,,,0.07,Rainwise IP-100,2013-11-18 09:02:00,
2013-11-18 04:07:00,54.2,54.0,29.55,WSW,247,1.0,9.0,100,0.00,,,0.07,Rainwise IP-100,2013-11-18 09:07:00,
2013-11-18 04:12:00,54.2,54.0,29.54,WSW,247,0.0,12.0,100,0.00,,,0.07,Rainwise IP-100,2013-11-18 09:12:00,
2013-11-18 04:17:00,54.2,54.0,29.54,SSW,202,2.0,10.0,100,0.00,,,0.07,Rainwise IP-100,2013-11-18 09:17:00,
2013-11-18 04:22:00,54.3,54.0,29.54,WSW,247,2.0,9.0,100,0.06,,,0.08,Rainwise IP-100,2013-11-18 09:22:00,
2013-11-18 04:27:00,54.2,54.0,29.53,NNW,337,0.0,9.0,100,0.06,,,0.08,Rainwise IP-100,2013-11-18 09:27:00,
2013-11-18 04:32:00,54.1,54.0,29.53,SSW,202,5.0,8.0,100,0.00,,,0.08,Rainwise IP-100,2013-11-18 09:32:00,
2013-11-18 04:37:00,54.2,54.0,29.52,SW,225,2.0,7.0,100,0.00,,,0.08,Rainwise IP-100,2013-11-18 09:37:00,
2013-11-18 04:42:00,54.3,54.0,29.52,South,180,0.0,12.0,100,0.00,,,0.08,Rainwise IP-100,2013-11-18 09:42:00,
2013-11-18 04:47:00,54.2,54.0,29.51,SSW,202,0.0,7.0,100,0.00,,,0.08,Rainwise IP-100,2013-11-18 09:47:00,
2013-11-18 04:52:00,54.1,54.0,29.51,South,180,0.0,5.0,100,0.00,,,0.08,Rainwise IP-100,2013-11-18 09:52:00,
2013-11-18 04:57:00,54.2,54.0,29.50,NW,315,0.0,5.0,100,0.00,,,0.08,Rainwise IP-100,2013-11-18 09:57:00,
2013-11-18 05:02:00,54.2,54.0,29.49,WSW,247,0.0,6.0,100,0.00,,,0.08,Rainwise IP-100,2013-11-18 10:02:00,
2013-11-18 05:07:00,54.3,54.0,29.49,South,180,5.0,7.0,100,0.00,,,0.08,Rainwise IP-100,2013-11-18 10:07:00,
2013-11-18 05:12:00,54.4,54.0,29.49,SSW,202,5.0,7.0,100,0.00,,,0.08,Rainwise IP-100,2013-11-18 10:12:00,
2013-11-18 05:17:00,54.4,54.0,29.48,SSW,202,5.0,7.0,100,0.06,,,0.09,Rainwise IP-100,2013-11-18 10:17:00,
2013-11-18 05:22:00,54.6,54.0,29.48,West,270,0.0,6.0,100,0.06,,,0.09,Rainwise IP-100,2013-11-18 10:22:00,
2013-11-18 05:27:00,54.5,54.0,29.48,NW,315,1.0,5.0,100,0.00,,,0.09,Rainwise IP-100,2013-11-18 10:27:00,
2013-11-18 05:32:00,54.8,54.0,29.47,WSW,247,0.0,9.0,100,0.00,,,0.09,Rainwise IP-100,2013-11-18 10:32:00,
2013-11-18 05:37:00,54.8,54.0,29.47,WNW,292,0.0,5.0,100,0.00,,,0.09,Rainwise IP-100,2013-11-18 10:37:00,
2013-11-18 05:42:00,54.8,54.0,29.46,South,180,5.0,7.0,100,0.00,,,0.09,Rainwise IP-100,2013-11-18 10:42:00,
2013-11-18 05:47:00,54.8,54.0,29.45,NE,45,2.0,7.0,100,0.00,,,0.09,Rainwise IP-100,2013-11-18 10:47:00,
2013-11-18 05:52:00,54.9,55.0,29.45,South,180,3.0,9.0,100,0.00,,,0.09,Rainwise IP-100,2013-11-18 10:52:00,
2013-11-18 05:57:00,55.3,55.0,29.45,SSW,202,4.0,10.0,100,0.06,,,0.10,Rainwise IP-100,2013-11-18 10:57:00,
2013-11-18 06:02:00,55.5,56.0,29.44,South,180,5.0,12.0,100,0.06,,,0.10,Rainwise IP-100,2013-11-18 11:02:00,
2013-11-18 06:07:00,55.6,56.0,29.43,SW,225,3.0,13.0,100,0.00,,,0.10,Rainwise IP-100,2013-11-18 11:07:00,
2013-11-18 06:12:00,55.6,56.0,29.43,South,180,5.0,15.0,100,0.00,,,0.10,Rainwise IP-100,2013-11-18 11:12:00,
2013-11-18 06:17:00,55.6,56.0,29.43,SSE,157,6.0,10.0,100,0.00,,,0.10,Rainwise IP-100,2013-11-18 11:17:00,
2013-11-18 06:22:00,55.7,56.0,29.43,South,180,6.0,9.0,100,0.00,,,0.10,Rainwise IP-100,2013-11-18 11:22:00,
2013-11-18 06:27:00,55.6,56.0,29.42,SE,135,5.0,13.0,100,0.00,,,0.10,Rainwise IP-100,2013-11-18 11:27:00,
2013-11-18 06:32:00,55.8,56.0,29.42,South,180,7.0,15.0,100,0.00,,,0.10,Rainwise IP-100,2013-11-18 11:32:00,
2013-11-18 06:37:00,55.8,56.0,29.41,SW,225,11.0,16.0,100,0.00,,,0.10,Rainwise IP-100,2013-11-18 11:37:00,
2013-11-18 06:42:00,55.9,56.0,29.41,SW,225,7.0,15.0,100,0.00,,,0.10,Rainwise IP-100,2013-11-18 11:42:00,
2013-11-18 06:47:00,55.9,56.0,29.41,SSW,202,7.0,15.0,100,0.00,,,0.10,Rainwise IP-100,2013-11-18 11:47:00,
2013-11-18 06:52:00,56.0,56.0,29.40,SW,225,2.0,15.0,100,0.06,,,0.11,Rainwise IP-100,2013-11-18 11:52:00,
2013-11-18 06:57:00,56.2,56.0,29.39,WSW,247,1.0,12.0,100,0.06,,,0.11,Rainwise IP-100,2013-11-18 11:57:00,
2013-11-18 07:02:00,56.2,56.0,29.40,South,180,6.0,17.0,100,0.00,,,0.11,Rainwise IP-100,2013-11-18 12:02:00,
2013-11-18 07:07:00,56.3,56.0,29.40,SW,225,6.0,17.0,100,0.00,,,0.11,Rainwise IP-100,2013-11-18 12:07:00,
2013-11-18 07:12:00,56.3,56.0,29.40,South,180,9.0,15.0,100,0.00,,,0.11,Rainwise IP-100,2013-11-18 12:12:00,
2013-11-18 07:17:00,56.3,56.0,29.39,SW,225,6.0,16.0,100,0.00,,,0.11,Rainwise IP-100,2013-11-18 12:17:00,
2013-11-18 07:22:00,56.2,56.0,29.38,South,180,6.0,17.0,100,0.00,,,0.11,Rainwise IP-100,2013-11-18 12:22:00,
2013-11-18 07:27:00,56.2,56.0,29.37,South,180,7.0,15.0,100,0.00,,,0.11,Rainwise IP-100,2013-11-18 12:27:00,
2013-11-18 07:32:00,56.2,56.0,29.38,South,180,7.0,18.0,100,0.00,,,0.11,Rainwise IP-100,2013-11-18 12:32:00,
2013-11-18 07:37:00,56.2,56.0,29.37,South,180,12.0,12.0,100,0.00,,,0.11,Rainwise IP-100,2013-11-18 12:37:00,
2013-11-18 07:42:00,56.2,56.0,29.36,South,180,2.0,15.0,100,0.00,,,0.11,Rainwise IP-100,2013-11-18 12:42:00,
2013-11-18 07:47:00,56.2,56.0,29.36,South,180,6.0,14.0,100,0.00,,,0.11,Rainwise IP-100,2013-11-18 12:47:00,
2013-11-18 07:52:00,56.1,56.0,29.35,SSW,202,6.0,17.0,100,0.00,,,0.11,Rainwise IP-100,2013-11-18 12:52:00,
2013-11-18 07:57:00,56.2,56.0,29.35,South,180,7.0,16.0,100,0.00,,,0.11,Rainwise IP-100,2013-11-18 12:57:00,
2013-11-18 08:02:00,56.3,56.0,29.34,SSW,202,9.0,14.0,100,0.06,,,0.12,Rainwise IP-100,2013-11-18 13:02:00,
2013-11-18 08:07:00,56.4,56.0,29.33,SW,225,3.0,16.0,100,0.06,,,0.12,Rainwise IP-100,2013-11-18 13:07:00,
2013-11-18 08:12:00,56.6,56.0,29.32,SW,225,5.0,16.0,100,0.00,,,0.12,Rainwise IP-100,2013-11-18 13:12:00,
2013-11-18 08:17:00,56.8,56.0,29.32,SSW,202,13.0,16.0,100,0.00,,,0.12,Rainwise IP-100,2013-11-18 13:17:00,
2013-11-18 08:22:00,57.1,57.0,29.31,South,180,3.0,22.0,100,0.00,,,0.12,Rainwise IP-100,2013-11-18 13:22:00,
2013-11-18 08:27:00,57.2,57.0,29.31,SSW,202,9.0,16.0,100,0.00,,,0.12,Rainwise IP-100,2013-11-18 13:27:00,
2013-11-18 08:32:00,57.2,57.0,29.31,SSW,202,6.0,17.0,100,0.00,,,0.12,Rainwise IP-100,2013-11-18 13:32:00,
2013-11-18 08:37:00,57.3,57.0,29.30,NNW,337,0.0,24.0,100,0.00,,,0.12,Rainwise IP-100,2013-11-18 13:37:00,
2013-11-18 08:42:00,57.2,57.0,29.30,South,180,11.0,13.0,100,0.00,,,0.12,Rainwise IP-100,2013-11-18 13:42:00,
2013-11-18 08:47:00,57.2,57.0,29.29,SSW,202,15.0,22.0,100,0.06,,,0.13,Rainwise IP-100,2013-11-18 13:47:00,
2013-11-18 08:52:00,57.1,57.0,29.29,South,180,7.0,22.0,100,0.06,,,0.13,Rainwise IP-100,2013-11-18 13:52:00,
2013-11-18 08:57:00,56.9,57.0,29.29,SSE,157,9.0,20.0,100,0.00,,,0.13,Rainwise IP-100,2013-11-18 13:57:00,
2013-11-18 09:02:00,56.9,57.0,29.28,SSE,157,5.0,18.0,100,0.00,,,0.13,Rainwise IP-100,2013-11-18 14:02:00,
2013-11-18 09:07:00,56.9,57.0,29.28,East,90,4.0,23.0,100,0.00,,,0.13,Rainwise IP-100,2013-11-18 14:07:00,
2013-11-18 09:12:00,56.8,56.0,29.27,SE,135,4.0,19.0,100,0.00,,,0.13,Rainwise IP-100,2013-11-18 14:12:00,
2013-11-18 09:17:00,56.8,56.0,29.28,South,180,15.0,19.0,100,0.00,,,0.13,Rainwise IP-100,2013-11-18 14:17:00,
2013-11-18 09:22:00,56.7,56.0,29.28,SSW,202,8.0,17.0,100,0.00,,,0.13,Rainwise IP-100,2013-11-18 14:22:00,
2013-11-18 09:27:00,56.6,56.0,29.27,SSW,202,7.0,17.0,100,0.00,,,0.13,Rainwise IP-100,2013-11-18 14:27:00,
2013-11-18 09:32:00,56.6,56.0,29.28,South,180,6.0,16.0,100,0.00,,,0.13,Rainwise IP-100,2013-11-18 14:32:00,
2013-11-18 09:37:00,56.6,56.0,29.28,South,180,4.0,16.0,100,0.00,,,0.13,Rainwise IP-100,2013-11-18 14:37:00,
2013-11-18 09:42:00,56.5,56.0,29.28,SSW,202,12.0,18.0,100,0.00,,,0.13,Rainwise IP-100,2013-11-18 14:42:00,
2013-11-18 09:47:00,56.6,56.0,29.28,SW,225,7.0,20.0,100,0.06,,,0.14,Rainwise IP-100,2013-11-18 14:47:00,
2013-11-18 09:52:00,56.6,56.0,29.28,South,180,4.0,14.0,100,0.06,,,0.14,Rainwise IP-100,2013-11-18 14:52:00,
2013-11-18 09:57:00,56.7,56.0,29.28,NNE,22,3.0,16.0,100,0.00,,,0.14,Rainwise IP-100,2013-11-18 14:57:00,
2013-11-18 10:02:00,57.1,57.0,29.28,SSE,157,6.0,14.0,100,0.00,,,0.14,Rainwise IP-100,2013-11-18 15:02:00,
2013-11-18 10:07:00,57.6,57.0,29.28,SE,135,6.0,17.0,100,0.00,,,0.14,Rainwise IP-100,2013-11-18 15:07:00,
2013-11-18 10:12:00,57.7,57.0,29.29,SW,225,4.0,19.0,100,0.00,,,0.14,Rainwise IP-100,2013-11-18 15:12:00,
2013-11-18 10:17:00,57.6,57.0,29.29,South,180,7.0,20.0,100,0.00,,,0.14,Rainwise IP-100,2013-11-18 15:17:00,
2013-11-18 10:22:00,57.4,57.0,29.27,NNE,22,1.0,16.0,100,0.00,,,0.14,Rainwise IP-100,2013-11-18 15:22:00,
2013-11-18 10:27:00,57.4,57.0,29.28,SW,225,1.0,13.0,100,0.00,,,0.14,Rainwise IP-100,2013-11-18 15:27:00,
2013-11-18 10:32:00,57.3,57.0,29.27,South,180,7.0,16.0,100,0.00,,,0.14,Rainwise IP-100,2013-11-18 15:32:00,
2013-11-18 10:37:00,57.2,57.0,29.27,South,180,9.0,13.0,100,0.00,,,0.14,Rainwise IP-100,2013-11-18 15:37:00,
2013-11-18 10:42:00,57.2,57.0,29.27,SW,225,1.0,17.0,100,0.06,,,0.15,Rainwise IP-100,2013-11-18 15:42:00,
2013-11-18 10:47:00,56.9,57.0,29.27,South,180,0.0,16.0,100,0.06,,,0.15,Rainwise IP-100,2013-11-18 15:47:00,
2013-11-18 10:52:00,56.9,57.0,29.26,SW,225,6.0,13.0,100,0.00,,,0.15,Rainwise IP-100,2013-11-18 15:52:00,
2013-11-18 10:57:00,56.8,56.0,29.26,South,180,9.0,12.0,100,0.00,,,0.15,Rainwise IP-100,2013-11-18 15:57:00,
2013-11-18 11:02:00,56.7,56.0,29.27,SE,135,5.0,16.0,100,0.00,,,0.15,Rainwise IP-100,2013-11-18 16:02:00,
2013-11-18 11:07:00,56.6,56.0,29.26,ENE,67,2.0,8.0,100,0.00,,,0.15,Rainwise IP-100,2013-11-18 16:07:00,
2013-11-18 11:12:00,56.6,56.0,29.26,South,180,9.0,13.0,100,0.00,,,0.15,Rainwise IP-100,2013-11-18 16:12:00,
2013-11-18 11:17:00,56.5,56.0,29.26,SW,225,5.0,13.0,100,0.00,,,0.15,Rainwise IP-100,2013-11-18 16:17:00,
2013-11-18 11:22:00,56.4,56.0,29.26,South,180,6.0,22.0,100,0.00,,,0.15,Rainwise IP-100,2013-11-18 16:22:00,
2013-11-18 11:27:00,56.3,56.0,29.26,South,180,11.0,17.0,100,0.00,,,0.15,Rainwise IP-100,2013-11-18 16:27:00,
2013-11-18 11:32:00,56.3,56.0,29.26,South,180,4.0,19.0,100,0.00,,,0.15,Rainwise IP-100,2013-11-18 16:32:00,
2013-11-18 11:37:00,56.2,56.0,29.25,SW,225,1.0,16.0,100,0.00,,,0.15,Rainwise IP-100,2013-11-18 16:37:00,
2013-11-18 11:42:00,56.1,56.0,29.25,South,180,5.0,12.0,100,0.00,,,0.15,Rainwise IP-100,2013-11-18 16:42:00,
2013-11-18 11:47:00,56.1,56.0,29.25,South,180,6.0,11.0,100,0.00,,,0.15,Rainwise IP-100,2013-11-18 16:47:00,
2013-11-18 11:52:00,56.1,56.0,29.25,SE,135,1.0,12.0,100,0.00,,,0.15,Rainwise IP-100,2013-11-18 16:52:00,
2013-11-18 11:57:00,56.0,56.0,29.25,SW,225,3.0,10.0,100,0.00,,,0.15,Rainwise IP-100,2013-11-18 16:57:00,
2013-11-18 12:02:00,55.9,56.0,29.25,NE,45,6.0,9.0,100,0.00,,,0.15,Rainwise IP-100,2013-11-18 17:02:00,
2013-11-18 12:07:00,55.8,56.0,29.25,SSW,202,6.0,11.0,100,0.00,,,0.15,Rainwise IP-100,2013-11-18 17:07:00,
2013-11-18 12:12:00,55.7,56.0,29.25,SSW,202,6.0,16.0,100,0.00,,,0.15,Rainwise IP-100,2013-11-18 17:12:00,
2013-11-18 12:17:00,55.8,56.0,29.25,ESE,112,6.0,11.0,100,0.00,,,0.15,Rainwise IP-100,2013-11-18 17:17:00,
2013-11-18 12:22:00,55.9,56.0,29.25,South,180,7.0,8.0,100,0.06,,,0.16,Rainwise IP-100,2013-11-18 17:22:00,
2013-11-18 12:27:00,55.9,56.0,29.25,WSW,247,4.0,8.0,100,0.06,,,0.16,Rainwise IP-100,2013-11-18 17:27:00,
2013-11-18 12:32:00,56.1,56.0,29.25,SSE,157,2.0,12.0,100,0.00,,,0.16,Rainwise IP-100,2013-11-18 17:32:00,
2013-11-18 12:37:00,56.2,56.0,29.25,South,180,0.0,9.0,100,0.00,,,0.16,Rainwise IP-100,2013-11-18 17:37:00,
2013-11-18 12:42:00,56.5,56.0,29.26,East,90,1.0,6.0,100,0.00,,,0.16,Rainwise IP-100,2013-11-18 17:42:00,
2013-11-18 12:47:00,56.5,56.0,29.26,South,180,5.0,12.0,100,0.00,,,0.16,Rainwise IP-100,2013-11-18 17:47:00,
2013-11-18 12:52:00,56.5,56.0,29.26,SSW,202,2.0,10.0,100,0.00,,,0.16,Rainwise IP-100,2013-11-18 17:52:00,
2013-11-18 12:57:00,56.6,56.0,29.26,South,180,0.0,7.0,100,0.00,,,0.16,Rainwise IP-100,2013-11-18 17:57:00,
2013-11-18 13:02:00,56.6,56.0,29.27,SSE,157,1.0,12.0,100,0.00,,,0.16,Rainwise IP-100,2013-11-18 18:02:00,
2013-11-18 13:07:00,56.5,56.0,29.27,South,180,7.0,11.0,100,0.00,,,0.16,Rainwise IP-100,2013-11-18 18:07:00,
2013-11-18 13:12:00,56.3,56.0,29.27,SSE,157,5.0,13.0,100,0.00,,,0.16,Rainwise IP-100,2013-11-18 18:12:00,
2013-11-18 13:17:00,56.4,56.0,29.27,South,180,6.0,10.0,100,0.00,,,0.16,Rainwise IP-100,2013-11-18 18:17:00,
2013-11-18 13:22:00,56.7,56.0,29.27,SSW,202,1.0,8.0,100,0.00,,,0.16,Rainwise IP-100,2013-11-18 18:22:00,
2013-11-18 13:27:00,56.6,56.0,29.26,South,180,3.0,12.0,100,0.00,,,0.16,Rainwise IP-100,2013-11-18 18:27:00,
2013-11-18 13:32:00,56.6,56.0,29.27,South,180,0.0,6.0,100,0.00,,,0.16,Rainwise IP-100,2013-11-18 18:32:00,
2013-11-18 13:37:00,56.5,56.0,29.27,South,180,4.0,7.0,100,0.00,,,0.16,Rainwise IP-100,2013-11-18 18:37:00,
2013-11-18 13:42:00,56.4,56.0,29.27,SSE,157,9.0,9.0,100,0.00,,,0.16,Rainwise IP-100,2013-11-18 18:42:00,
2013-11-18 13:47:00,56.6,56.0,29.27,South,180,6.0,10.0,100,0.00,,,0.16,Rainwise IP-100,2013-11-18 18:47:00,
2013-11-18 13:52:00,56.9,57.0,29.27,South,180,8.0,9.0,100,0.00,,,0.16,Rainwise IP-100,2013-11-18 18:52:00,
2013-11-18 13:57:00,56.7,56.0,29.27,SSW,202,6.0,9.0,100,0.00,,,0.16,Rainwise IP-100,2013-11-18 18:57:00,
2013-11-18 14:02:00,56.6,56.0,29.27,South,180,7.0,10.0,100,0.00,,,0.16,Rainwise IP-100,2013-11-18 19:02:00,
2013-11-18 14:07:00,56.9,57.0,29.27,South,180,4.0,10.0,100,0.00,,,0.16,Rainwise IP-100,2013-11-18 19:07:00,
2013-11-18 14:12:00,56.7,56.0,29.27,South,180,3.0,11.0,100,0.06,,,0.17,Rainwise IP-100,2013-11-18 19:12:00,
2013-11-18 14:17:00,56.6,56.0,29.27,SE,135,5.0,13.0,100,0.06,,,0.17,Rainwise IP-100,2013-11-18 19:17:00,
2013-11-18 14:22:00,56.6,56.0,29.27,South,180,5.0,12.0,100,0.00,,,0.17,Rainwise IP-100,2013-11-18 19:22:00,
2013-11-18 14:27:00,56.6,56.0,29.27,SSW,202,2.0,10.0,100,0.00,,,0.17,Rainwise IP-100,2013-11-18 19:27:00,
2013-11-18 14:32:00,56.5,56.0,29.27,SSE,157,4.0,7.0,100,0.00,,,0.17,Rainwise IP-100,2013-11-18 19:32:00,
2013-11-18 14:37:00,56.1,56.0,29.27,South,180,6.0,7.0,100,0.00,,,0.17,Rainwise IP-100,2013-11-18 19:37:00,
2013-11-18 14:42:00,55.9,56.0,29.27,SSW,202,5.0,9.0,100,0.00,,,0.17,Rainwise IP-100,2013-11-18 19:42:00,
2013-11-18 14:47:00,55.7,56.0,29.28,South,180,2.0,10.0,100,0.00,,,0.17,Rainwise IP-100,2013-11-18 19:47:00,
2013-11-18 14:52:00,55.4,55.0,29.27,South,180,3.0,9.0,100,0.00,,,0.17,Rainwise IP-100,2013-11-18 19:52:00,
2013-11-18 14:57:00,55.2,55.0,29.27,South,180,5.0,6.0,100,0.00,,,0.17,Rainwise IP-100,2013-11-18 19:57:00,
2013-11-18 15:02:00,54.9,55.0,29.27,SSE,157,1.0,8.0,100,0.00,,,0.17,Rainwise IP-100,2013-11-18 20:02:00,
2013-11-18 15:07:00,54.9,55.0,29.28,South,180,0.0,9.0,100,0.00,,,0.17,Rainwise IP-100,2013-11-18 20:07:00,
2013-11-18 15:12:00,54.7,54.0,29.28,SSE,157,3.0,6.0,100,0.00,,,0.17,Rainwise IP-100,2013-11-18 20:12:00,
2013-11-18 15:17:00,54.4,54.0,29.28,South,180,2.0,6.0,100,0.00,,,0.17,Rainwise IP-100,2013-11-18 20:17:00,
2013-11-18 15:22:00,53.9,54.0,29.28,South,180,0.0,6.0,100,0.00,,,0.17,Rainwise IP-100,2013-11-18 20:22:00,
2013-11-18 15:27:00,53.4,53.0,29.28,SSW,202,0.0,6.0,100,0.00,,,0.17,Rainwise IP-100,2013-11-18 20:27:00,
2013-11-18 15:32:00,52.9,53.0,29.28,South,180,2.0,6.0,100,0.00,,,0.17,Rainwise IP-100,2013-11-18 20:32:00,
2013-11-18 15:37:00,52.9,53.0,29.28,South,180,2.0,5.0,100,0.00,,,0.17,Rainwise IP-100,2013-11-18 20:37:00,
2013-11-18 15:42:00,52.7,53.0,29.28,SSW,202,2.0,7.0,100,0.00,,,0.17,Rainwise IP-100,2013-11-18 20:42:00,
2013-11-18 15:47:00,52.6,53.0,29.28,South,180,0.0,6.0,100,0.00,,,0.17,Rainwise IP-100,2013-11-18 20:47:00,
2013-11-18 15:52:00,52.2,52.0,29.28,SSE,157,0.0,3.0,100,0.00,,,0.17,Rainwise IP-100,2013-11-18 20:52:00,
2013-11-18 15:57:00,51.8,52.0,29.28,SSE,157,0.0,1.0,100,0.00,,,0.17,Rainwise IP-100,2013-11-18 20:57:00,
2013-11-18 16:02:00,51.4,51.0,29.28,SSE,157,3.0,3.0,100,0.00,,,0.17,Rainwise IP-100,2013-11-18 21:02:00,
2013-11-18 16:07:00,51.1,51.0,29.28,SSE,157,2.0,5.0,100,0.00,,,0.17,Rainwise IP-100,2013-11-18 21:07:00,
2013-11-18 16:12:00,50.7,50.0,29.28,South,180,1.0,4.0,100,0.00,,,0.17,Rainwise IP-100,2013-11-18 21:12:00,
2013-11-18 16:17:00,50.4,50.0,29.28,South,180,2.0,3.0,100,0.00,,,0.17,Rainwise IP-100,2013-11-18 21:17:00,
2013-11-18 16:22:00,50.1,50.0,29.29,South,180,1.0,3.0,100,0.00,,,0.17,Rainwise IP-100,2013-11-18 21:22:00,
2013-11-18 16:27:00,49.7,50.0,29.29,South,180,3.0,3.0,100,0.00,,,0.17,Rainwise IP-100,2013-11-18 21:27:00,
2013-11-18 16:32:00,49.2,49.0,29.29,South,180,0.0,3.0,100,0.00,,,0.17,Rainwise IP-100,2013-11-18 21:32:00,
2013-11-18 16:37:00,48.8,49.0,29.29,South,180,0.0,1.0,100,0.00,,,0.17,Rainwise IP-100,2013-11-18 21:37:00,
2013-11-18 16:42:00,48.5,49.0,29.29,South,180,0.0,0.0,100,0.00,,,0.17,Rainwise IP-100,2013-11-18 21:42:00,
2013-11-18 16:47:00,48.2,48.0,29.29,South,180,0.0,0.0,100,0.00,,,0.17,Rainwise IP-100,2013-11-18 21:47:00,
2013-11-18 16:52:00,47.8,47.0,29.29,South,180,0.0,0.0,100,0.00,,,0.17,Rainwise IP-100,2013-11-18 21:52:00,
2013-11-18 16:57:00,47.3,47.0,29.30,South,180,0.0,0.0,100,0.00,,,0.17,Rainwise IP-100,2013-11-18 21:57:00,
2013-11-18 17:02:00,46.9,47.0,29.30,South,180,0.0,0.0,100,0.00,,,0.17,Rainwise IP-100,2013-11-18 22:02:00,
2013-11-18 17:07:00,46.5,47.0,29.30,South,180,0.0,0.0,100,0.00,,,0.17,Rainwise IP-100,2013-11-18 22:07:00,
2013-11-18 17:12:00,46.2,46.0,29.30,South,180,0.0,0.0,100,0.00,,,0.17,Rainwise IP-100,2013-11-18 22:12:00,
2013-11-18 17:17:00,45.9,46.0,29.30,South,180,0.0,0.0,100,0.00,,,0.17,Rainwise IP-100,2013-11-18 22:17:00,
2013-11-18 17:22:00,45.9,46.0,29.29,SW,225,0.0,4.0,100,0.00,,,0.17,Rainwise IP-100,2013-11-18 22:22:00,
2013-11-18 17:27:00,45.9,46.0,29.29,SW,225,0.0,3.0,100,0.00,,,0.17,Rainwise IP-100,2013-11-18 22:27:00,
2013-11-18 17:32:00,46.2,46.0,29.30,SW,225,0.0,0.0,100,0.00,,,0.17,Rainwise IP-100,2013-11-18 22:32:00,
2013-11-18 17:37:00,45.8,46.0,29.30,SW,225,0.0,0.0,100,0.00,,,0.17,Rainwise IP-100,2013-11-18 22:37:00,
2013-11-18 17:42:00,45.3,45.0,29.30,NW,315,0.0,2.0,100,0.00,,,0.17,Rainwise IP-100,2013-11-18 22:42:00,
2013-11-18 17:47:00,44.7,45.0,29.29,NW,315,0.0,1.0,100,0.00,,,0.17,Rainwise IP-100,2013-11-18 22:47:00,
2013-11-18 17:52:00,44.3,44.0,29.29,NW,315,0.0,0.0,100,0.00,,,0.17,Rainwise IP-100,2013-11-18 22:52:00,
2013-11-18 17:57:00,44.1,44.0,29.29,NW,315,0.0,0.0,100,0.00,,,0.17,Rainwise IP-100,2013-11-18 22:57:00,
2013-11-18 18:02:00,44.3,44.0,29.30,East,90,0.0,2.0,100,0.06,,,0.18,Rainwise IP-100,2013-11-18 23:02:00,
2013-11-18 18:07:00,44.2,44.0,29.30,East,90,0.0,3.0,100,0.06,,,0.18,Rainwise IP-100,2013-11-18 23:07:00,
2013-11-18 18:12:00,43.8,44.0,29.30,East,90,0.0,0.0,100,0.00,,,0.18,Rainwise IP-100,2013-11-18 23:12:00,
2013-11-18 18:17:00,43.8,44.0,29.30,East,90,0.0,0.0,100,0.00,,,0.18,Rainwise IP-100,2013-11-18 23:17:00,
2013-11-18 18:22:00,43.5,44.0,29.30,East,90,0.0,0.0,100,0.00,,,0.18,Rainwise IP-100,2013-11-18 23:22:00,
2013-11-18 18:27:00,43.4,43.0,29.31,ENE,67,1.0,3.0,100,0.00,,,0.18,Rainwise IP-100,2013-11-18 23:27:00,
2013-11-18 18:32:00,43.1,43.0,29.31,ENE,67,0.0,3.0,100,0.00,,,0.18,Rainwise IP-100,2013-11-18 23:32:00,
2013-11-18 18:37:00,42.7,43.0,29.30,NE,45,2.0,2.0,100,0.00,,,0.18,Rainwise IP-100,2013-11-18 23:37:00,
2013-11-18 18:42:00,42.4,42.0,29.30,NE,45,1.0,3.0,100,0.00,,,0.18,Rainwise IP-100,2013-11-18 23:42:00,
2013-11-18 18:47:00,42.2,42.0,29.30,NE,45,0.0,2.0,100,0.00,,,0.18,Rainwise IP-100,2013-11-18 23:47:00,
2013-11-18 18:52:00,42.1,42.0,29.30,NE,45,0.0,0.0,100,0.00,,,0.18,Rainwise IP-100,2013-11-18 23:52:00,
2013-11-18 18:57:00,42.1,42.0,29.30,NE,45,0.0,0.0,100,0.00,,,0.18,Rainwise IP-100,2013-11-18 23:57:00,
2013-11-18 19:02:00,42.5,43.0,29.30,NE,45,0.0,0.0,100,0.00,,,0.18,Rainwise IP-100,2013-11-19 00:02:00,
2013-11-18 19:07:00,42.9,43.0,29.30,NE,45,0.0,0.0,100,0.00,,,0.18,Rainwise IP-100,2013-11-19 00:07:00,
2013-11-18 19:12:00,42.8,43.0,29.30,NE,45,0.0,0.0,100,0.00,,,0.18,Rainwise IP-100,2013-11-19 00:12:00,
2013-11-18 19:17:00,42.5,43.0,29.30,NE,45,0.0,3.0,100,0.00,,,0.18,Rainwise IP-100,2013-11-19 00:17:00,
2013-11-18 19:22:00,42.6,43.0,29.30,NE,45,0.0,0.0,100,0.00,,,0.18,Rainwise IP-100,2013-11-19 00:22:00,
2013-11-18 19:27:00,42.4,42.0,29.30,NE,45,0.0,0.0,100,0.00,,,0.18,Rainwise IP-100,2013-11-19 00:27:00,
2013-11-18 19:32:00,41.9,42.0,29.30,NE,45,0.0,0.0,100,0.00,,,0.18,Rainwise IP-100,2013-11-19 00:32:00,
2013-11-18 19:37:00,41.8,42.0,29.30,NE,45,0.0,0.0,100,0.00,,,0.18,Rainwise IP-100,2013-11-19 00:37:00,
2013-11-18 19:42:00,41.8,42.0,29.30,NE,45,0.0,0.0,100,0.00,,,0.18,Rainwise IP-100,2013-11-19 00:42:00,
2013-11-18 19:47:00,41.9,42.0,29.29,NE,45,0.0,0.0,100,0.00,,,0.18,Rainwise IP-100,2013-11-19 00:47:00,
2013-11-18 19:52:00,41.9,42.0,29.30,NE,45,0.0,0.0,100,0.00,,,0.18,Rainwise IP-100,2013-11-19 00:52:00,
2013-11-18 19:57:00,41.6,42.0,29.30,NE,45,1.0,2.0,100,0.00,,,0.18,Rainwise IP-100,2013-11-19 00:57:00,
2013-11-18 20:02:00,40.9,41.0,29.29,NE,45,2.0,3.0,100,0.00,,,0.18,Rainwise IP-100,2013-11-19 01:02:00,
2013-11-18 20:07:00,40.7,41.0,29.29,NE,45,0.0,2.0,100,0.00,,,0.18,Rainwise IP-100,2013-11-19 01:07:00,
2013-11-18 20:12:00,40.4,40.0,29.29,NE,45,0.0,0.0,100,0.00,,,0.18,Rainwise IP-100,2013-11-19 01:12:00,
2013-11-18 20:17:00,40.1,40.0,29.29,NE,45,0.0,0.0,100,0.00,,,0.18,Rainwise IP-100,2013-11-19 01:17:00,
2013-11-18 20:22:00,39.9,40.0,29.29,NE,45,0.0,0.0,100,0.00,,,0.18,Rainwise IP-100,2013-11-19 01:22:00,
2013-11-18 20:27:00,39.9,40.0,29.28,NE,45,0.0,0.0,100,0.00,,,0.18,Rainwise IP-100,2013-11-19 01:27:00,
2013-11-18 20:32:00,39.9,40.0,29.28,NE,45,0.0,0.0,100,0.00,,,0.18,Rainwise IP-100,2013-11-19 01:32:00,
2013-11-18 20:37:00,39.8,40.0,29.28,NE,45,0.0,0.0,100,0.00,,,0.18,Rainwise IP-100,2013-11-19 01:37:00,
2013-11-18 20:42:00,39.8,40.0,29.28,NE,45,3.0,4.0,100,0.00,,,0.18,Rainwise IP-100,2013-11-19 01:42:00,
2013-11-18 20:44:00,39.7,40.0,29.28,NE,45,1.0,4.0,100,0.00,,,0.18,Rainwise IP-100,2013-11-19 01:44:00,
2013-11-18 20:49:00,39.4,39.0,29.28,NE,45,1.0,3.0,100,0.00,,,0.18,Rainwise IP-100,2013-11-19 01:49:00,
2013-11-18 20:54:00,39.2,39.0,29.27,NE,45,0.0,1.0,100,0.00,,,0.18,Rainwise IP-100,2013-11-19 01:54:00,
2013-11-18 20:59:00,38.9,39.0,29.27,SSE,157,3.0,3.0,100,0.00,,,0.18,Rainwise IP-100,2013-11-19 01:59:00,
2013-11-18 21:04:00,38.9,39.0,29.27,WNW,292,0.0,3.0,100,0.00,,,0.18,Rainwise IP-100,2013-11-19 02:04:00,
2013-11-18 21:09:00,38.9,39.0,29.27,WNW,292,0.0,0.0,100,0.00,,,0.18,Rainwise IP-100,2013-11-19 02:09:00,
2013-11-18 21:14:00,38.8,39.0,29.28,WNW,292,0.0,0.0,100,0.00,,,0.18,Rainwise IP-100,2013-11-19 02:14:00,
2013-11-18 21:19:00,38.7,39.0,29.28,WNW,292,0.0,0.0,100,0.00,,,0.18,Rainwise IP-100,2013-11-19 02:19:00,
2013-11-18 21:24:00,38.6,39.0,29.28,North,360,1.0,4.0,100,0.00,,,0.18,Rainwise IP-100,2013-11-19 02:24:00,
2013-11-18 21:29:00,38.3,38.0,29.27,North,360,0.0,2.0,100,0.00,,,0.18,Rainwise IP-100,2013-11-19 02:29:00,
2013-11-18 21:34:00,37.9,38.0,29.28,North,360,0.0,0.0,100,0.00,,,0.18,Rainwise IP-100,2013-11-19 02:34:00,
2013-11-18 21:39:00,37.8,38.0,29.28,North,360,0.0,0.0,100,0.00,,,0.18,Rainwise IP-100,2013-11-19 02:39:00,
2013-11-18 21:44:00,37.8,38.0,29.28,North,360,0.0,0.0,100,0.00,,,0.18,Rainwise IP-100,2013-11-19 02:44:00,
2013-11-18 21:49:00,37.9,38.0,29.28,North,360,0.0,0.0,100,0.00,,,0.18,Rainwise IP-100,2013-11-19 02:49:00,
2013-11-18 21:54:00,38.5,39.0,29.28,North,360,0.0,0.0,100,0.00,,,0.18,Rainwise IP-100,2013-11-19 02:54:00,
2013-11-18 21:59:00,38.9,39.0,29.28,North,360,0.0,0.0,100,0.00,,,0.18,Rainwise IP-100,2013-11-19 02:59:00,
2013-11-18 22:04:00,39.1,39.0,29.28,North,360,0.0,0.0,100,0.00,,,0.18,Rainwise IP-100,2013-11-19 03:04:00,
2013-11-18 22:09:00,39.0,39.0,29.29,North,360,0.0,0.0,100,0.00,,,0.18,Rainwise IP-100,2013-11-19 03:09:00,
2013-11-18 22:14:00,38.9,39.0,29.28,North,360,2.0,3.0,100,0.00,,,0.18,Rainwise IP-100,2013-11-19 03:14:00,
2013-11-18 22:19:00,38.8,39.0,29.28,North,360,0.0,3.0,100,0.00,,,0.18,Rainwise IP-100,2013-11-19 03:19:00,
2013-11-18 22:24:00,38.8,39.0,29.29,North,360,0.0,0.0,100,0.00,,,0.18,Rainwise IP-100,2013-11-19 03:24:00,
2013-11-18 22:29:00,38.8,39.0,29.28,North,360,0.0,0.0,100,0.00,,,0.18,Rainwise IP-100,2013-11-19 03:29:00,
2013-11-18 22:34:00,38.8,39.0,29.28,North,360,0.0,0.0,100,0.00,,,0.18,Rainwise IP-100,2013-11-19 03:34:00,
2013-11-18 22:39:00,38.5,39.0,29.28,North,360,0.0,0.0,100,0.00,,,0.18,Rainwise IP-100,2013-11-19 03:39:00,
2013-11-18 22:44:00,38.5,39.0,29.28,North,360,0.0,0.0,100,0.00,,,0.18,Rainwise IP-100,2013-11-19 03:44:00,
2013-11-18 22:49:00,38.6,39.0,29.28,North,360,0.0,0.0,100,0.00,,,0.18,Rainwise IP-100,2013-11-19 03:49:00,
2013-11-18 22:54:00,38.6,39.0,29.29,North,360,0.0,0.0,100,0.00,,,0.18,Rainwise IP-100,2013-11-19 03:54:00,
2013-11-18 22:59:00,38.6,39.0,29.29,North,360,0.0,0.0,100,0.00,,,0.18,Rainwise IP-100,2013-11-19 03:59:00,
2013-11-18 23:04:00,38.9,39.0,29.29,North,360,0.0,0.0,100,0.00,,,0.18,Rainwise IP-100,2013-11-19 04:04:00,
2013-11-18 23:07:00,39.2,39.0,29.29,North,360,0.0,0.0,100,0.00,,,0.18,Rainwise IP-100,2013-11-19 04:07:00,
2013-11-18 23:12:00,39.3,39.0,29.29,North,360,0.0,0.0,100,0.00,,,0.18,Rainwise IP-100,2013-11-19 04:12:00,
2013-11-18 23:17:00,39.4,39.0,29.29,North,360,0.0,0.0,100,0.00,,,0.18,Rainwise IP-100,2013-11-19 04:17:00,
2013-11-18 23:22:00,39.4,39.0,29.29,North,360,0.0,0.0,100,0.00,,,0.18,Rainwise IP-100,2013-11-19 04:22:00,
2013-11-18 23:27:00,39.4,39.0,29.29,North,360,0.0,0.0,100,0.00,,,0.18,Rainwise IP-100,2013-11-19 04:27:00,
2013-11-18 23:32:00,39.4,39.0,29.29,North,360,0.0,0.0,100,0.00,,,0.18,Rainwise IP-100,2013-11-19 04:32:00,
2013-11-18 23:37:00,39.3,39.0,29.29,North,360,0.0,0.0,100,0.00,,,0.18,Rainwise IP-100,2013-11-19 04:37:00,
2013-11-18 23:42:00,39.3,39.0,29.29,North,360,0.0,0.0,100,0.00,,,0.18,Rainwise IP-100,2013-11-19 04:42:00,
2013-11-18 23:47:00,39.2,39.0,29.29,North,360,0.0,0.0,100,0.00,,,0.18,Rainwise IP-100,2013-11-19 04:47:00,
2013-11-18 23:52:00,39.2,39.0,29.29,North,360,0.0,0.0,100,0.00,,,0.18,Rainwise IP-100,2013-11-19 04:52:00,
2013-11-18 23:57:00,39.2,39.0,29.29,North,360,0.0,0.0,100,0.00,,,0.18,Rainwise IP-100,2013-11-19 04:57:00,